Powrót do katalogu

FENGYUN 1C DEB

LostPO
NORAD 38803·DEBRIS·🇨🇳 China

Wystrzelony May 10, 1999 z Taiyuan Satellite Launch Center

Loading…

Następne Przeloty (najbliższe 24 godziny)

TLE

NieaktualneSource: Space-Track

Epoka: Jul 31, 2026, 00:14 UTC

1 38803U 99025EUT 26212.01039919  .00003483  00000-0  14574-2 0  9993
2 38803  99.1330 230.1117 0064775  96.5693 264.2864 14.25618402634919

Śledź FENGYUN 1C DEB w czasie rzeczywistym z AllMySat

Download on the App Store